Location: Asheville, NC
(35.6000°N, 82.5500°W)
Time: 07:08:54
(UTC-04:00)

Vanguard 1 Rocket - Pass Details

Date: 23 January 2018
Orbit: 652 x 4225 km, 34.3° (Epoch: 20 May)

Event Time Altitude Azimuth Distance (km) Brightness Sun altitude
Rises 02:29:01 0° 195° (SSW) 8,431 12.1 -61.4°
Reaches altitude 10° 02:38:06 10° 181° (S) 7,145 11.7 -59.8°
Maximum altitude 02:51:52 19° 144° (SE) 5,479 11.3 -57.2°
Drops below altitude 10° 03:02:07 10° 106° (ESE) 5,264 11.6 -55.2°
Sets 03:07:01 0° 90° (E) 5,692 12.0 -54.3°
